Location: Boleita
(10.4833°N, 66.8167°W)
Time: 02:12:31
(UTC+00:00)

DASH - Pass Details

Date: 08 November 2025
Orbit: 410 x 34363 km, 29.0° (Epoch: 08 December)

Event Time Altitude Azimuth Distance (km) Brightness Sun altitude
Exits shadow 08:34:46 31° 325° (NW) 2,585 5.3 -25.9°
Maximum altitude 08:37:51 41° 8° (N) 1,532 4.4 -25.1°
Drops below altitude 10° 08:41:36 10° 82° (E) 1,977 6.1 -24.2°
Sets 08:43:02 0° 92° (E) 2,590 7.1 -23.9°
